TimeHST,TemperatureF,Dew PointF,Humidity,Sea Level PressureIn,VisibilityMPH,Wind Direction,Wind SpeedMPH,Gust SpeedMPH,PrecipitationIn,Events,Conditions,WindDirDegrees,DateUTC
12:54 AM,73.9,66.0,76,30.03,10.0,ENE,5.8,-,N/A,,Clear,70,2013-08-19 10:54:00
1:54 AM,73.9,64.0,71,30.01,10.0,NNE,6.9,-,N/A,,Clear,30,2013-08-19 11:54:00
2:54 AM,75.0,63.0,66,29.99,10.0,NE,10.4,-,N/A,,Clear,40,2013-08-19 12:54:00
3:54 AM,71.1,62.1,73,30.00,10.0,NE,5.8,-,N/A,,Clear,40,2013-08-19 13:54:00
4:54 AM,69.1,59.0,70,30.01,10.0,NE,3.5,-,N/A,,Clear,50,2013-08-19 14:54:00
5:54 AM,71.1,62.1,73,30.01,10.0,NNE,5.8,-,N/A,,Clear,30,2013-08-19 15:54:00
7:54 AM,79.0,68.0,69,30.03,10.0,NE,9.2,-,N/A,,Partly Cloudy,50,2013-08-19 17:54:00
8:54 AM,82.0,66.9,60,30.03,10.0,NE,16.1,21.9,N/A,,Partly Cloudy,50,2013-08-19 18:54:00
9:54 AM,82.0,68.0,62,30.04,10.0,NE,19.6,25.3,N/A,,Scattered Clouds,40,2013-08-19 19:54:00
10:54 AM,86.0,68.0,55,30.03,10.0,NNE,19.6,-,N/A,,Scattered Clouds,30,2013-08-19 20:54:00
11:54 AM,86.0,68.0,55,30.03,10.0,NE,19.6,25.3,N/A,,Scattered Clouds,40,2013-08-19 21:54:00
12:54 PM,86.0,69.1,57,30.01,10.0,NNE,21.9,-,N/A,,Scattered Clouds,30,2013-08-19 22:54:00
1:54 PM,87.1,70.0,57,30.00,10.0,NE,19.6,28.8,N/A,,Scattered Clouds,40,2013-08-19 23:54:00
2:54 PM,87.1,71.1,59,29.99,10.0,NE,18.4,25.3,N/A,,Scattered Clouds,50,2013-08-20 00:54:00
3:54 PM,84.9,71.1,63,29.98,10.0,NNE,20.7,28.8,N/A,,Scattered Clouds,30,2013-08-20 01:54:00
4:54 PM,81.0,71.1,72,29.97,10.0,ENE,13.8,19.6,N/A,,Scattered Clouds,60,2013-08-20 02:54:00
5:54 PM,79.0,69.1,72,29.96,10.0,ENE,11.5,18.4,N/A,,Scattered Clouds,60,2013-08-20 03:54:00
6:54 PM,78.1,68.0,71,29.97,10.0,NE,9.2,-,N/A,,Clear,40,2013-08-20 04:54:00
7:54 PM,77.0,69.1,76,29.96,10.0,NE,4.6,-,N/A,,Partly Cloudy,50,2013-08-20 05:54:00
8:54 PM,73.0,70.0,90,30.00,10.0,Calm,Calm,-,N/A,,Partly Cloudy,0,2013-08-20 06:54:00
9:54 PM,75.9,70.0,82,30.01,10.0,Calm,Calm,-,N/A,,Mostly Cloudy,0,2013-08-20 07:54:00
10:54 PM,75.9,69.1,79,-9999,10.0,ENE,4.6,-,N/A,,Mostly Cloudy,60,2013-08-20 08:54:00
11:54 PM,75.0,70.0,84,-9999,10.0,Calm,Calm,-,N/A,,Mostly Cloudy,0,2013-08-20 09:54:00